Location: Kouchibouguac National Park
(46.8081°N, 64.9088°W)
Time: 08:32:48
(UTC-04:00)

Daily predictions for brighter satellites

Satellite Brightness Start Highest point End
(mag) Time Altitude Azimuth Time Altitude Azimuth Time Altitude Azimuth
Okean 2 Rocket 3.2 18:24:55 10° S 18:29:22 84° W 18:33:50 10° N
Cosmos 1709 Rocket 4.3 18:24:11 10° SSE 18:29:57 42° E 18:35:41 10° NNE
Cosmos 1340 3.2 18:26:30 10° N 18:30:04 37° ENE 18:33:36 10° SE
Meteor 1-18 Rocket 4.4 18:27:34 10° NNW 18:33:10 83° W 18:38:46 10° S
USA 215 3.9 18:27:11 10° NE 18:33:30 53° NNW 18:39:47 10° W
FREGAT/IRIS 3.2 18:31:37 10° SE 18:34:28 36° ENE 18:37:21 10° N
Cosmos 2322 Rocket 2.9 18:30:52 10° NNW 18:36:23 61° WSW 18:41:54 10° S
Cosmos 1484 Rocket 4.3 18:37:29 10° S 18:41:15 42° W 18:45:00 10° NNW
Cosmos 1954 Rocket 4.4 18:36:32 10° S 18:41:23 42° ESE 18:46:19 10° NE
NOSS 2-2 (D) 4.5 18:38:41 10° WSW 18:42:46 50° NW 18:47:39 10° NNE
Meteor 1-20 Rocket 4.3 18:37:23 10° S 18:43:13 82° E 18:49:06 10° NNE
Meteor 1-28 Rocket 3.2 18:40:05 10° NNE 18:43:55 85° ESE 18:47:44 10° SSW
Meteor 1-19 Rocket 4.5 18:38:44 10° N 18:44:13 49° ENE 18:49:47 10° SSE
TSX-5 3.8 18:43:31 10° S 18:46:28 38° ESE 18:49:34 10° NE
Cosmos 1745 Rocket 4.4 18:41:48 10° SSW 18:48:06 72° W 18:54:23 10° N
FENGYUN 3A 3.9 18:42:57 10° SE 18:48:07 47° ENE 18:53:18 10° N
Cosmos 2151 Rocket 3.6 18:44:00 10° S 18:48:29 75° E 18:53:02 10° NNE
Genesis I 3.7 18:45:33 10° NNW 18:49:20 42° NE 18:53:02 10° ESE
Okean 1 Rocket 3.9 18:45:51 10° SSE 18:49:45 30° E 18:53:41 10° NNE
SJ-6B 2.8 18:45:57 10° SSE 18:49:54 62° ENE 18:53:46 10° N
Tiangong 2 3.8 18:48:39 10° WSW 18:50:22 14° SSW 18:52:04 10° S
HJ-1C 4.0 18:47:19 10° SE 18:50:27 36° ENE 18:53:34 10° N
Gbstr 26 Del rocket 4.1 18:49:16 10° S 18:52:15 22° SE 18:54:17 15° E
USA 186 3.8 18:53:12 11° NE 18:53:12 11° NE 18:53:33 10° NE
Cosmos 2322 3.7 18:46:51 10° NNW 18:52:36 69° ENE 18:58:17 10° SE
Cosmos 1238 Rocket 2.1 18:54:04 10° N 18:57:03 53° E 18:59:56 10° SSE
NOAA 12 4.3 18:54:18 10° SSE 18:59:37 80° WSW 19:05:00 10° NNW
Meteor 1-13 Rocket 4.1 18:55:42 10° N 19:01:16 74° ENE 19:06:53 10° SSE
GEOS 3 Rocket 4.3 18:58:58 10° NE 19:03:43 34° ESE 19:08:29 10° S
Cosmos 1025 Rocket 3.7 19:02:42 10° N 19:06:43 33° ENE 19:10:42 10° SE
COSMOS 2428 2.9 19:02:16 10° NNW 19:07:49 51° ENE 19:13:20 10° SE
Cosmos 2237 4.2 19:02:26 10° NNW 19:08:09 63° ENE 19:13:49 10° SE
SL-19 R/B 4.4 19:03:19 10° SSE 19:08:56 64° ENE 19:14:59 10° NNW
Cosmos 405 Rocket 4.2 19:06:26 10° NNE 19:09:27 19° ENE 19:09:44 19° ENE
ATLAS CENTAUR R/B 4.2 19:08:39 10° NW 19:09:41 11° NNW 19:10:42 10° N
Meteor 2-4 Rocket 3.7 19:05:10 10° N 19:10:41 57° ENE 19:16:00 10° SSE
CZ-2D R/B 3.8 19:08:11 11° SE 19:11:30 35° ENE 19:15:00 10° N
Cosmos 2237 Rocket 3.4 19:07:11 10° N 19:11:45 24° NE 19:14:01 19° ENE
Okean 1-7 Rocket 3.8 19:08:00 10° N 19:12:28 50° ENE 19:16:49 10° SSE
Cosmos 1536 3.1 19:12:57 10° SSE 19:16:44 43° E 19:20:32 10° NNE
H-2A R/B 2.8 19:13:14 10° SSE 19:16:51 51° ENE 19:20:31 10° N
Cosmos 1023 Rocket 4.4 19:12:52 10° S 19:17:54 67° ESE 19:23:01 10° NNE
Cosmos 1633 2.7 19:18:54 10° SSW 19:22:35 80° W 19:26:18 10° N
Cosmos 1741 Rocket 4.2 19:19:47 10° S 19:24:46 47° ESE 19:29:46 10° NNE
Cosmos 2360 Rocket 2.7 19:21:41 10° NNW 19:27:16 60° WSW 19:32:49 10° S
Cosmos 1818 3.9 19:22:22 10° SW 19:27:47 67° NW 19:33:16 10° NNE
Cosmos 2219 Rocket 2.6 19:23:46 10° NNW 19:29:06 43° NE 19:31:49 26° ESE
Cosmos 2219 3.5 19:26:03 10° S 19:31:29 45° ESE 19:36:56 10° NE
Cosmos 1570 Rocket 4.0 19:32:03 10° NNW 19:37:19 86° WSW 19:42:33 10° SSE
Meteor 1-11 Rocket 3.9 19:34:48 10° SSW 19:40:37 82° W 19:46:36 10° N
SL-16 R/B 3.6 19:40:53 10° N 19:45:03 20° NE 19:45:26 20° NE
Cosmos 1140 Rocket 3.7 19:43:20 10° SSW 19:48:27 70° WNW 19:53:38 10° NNE
Resurs 01 Rocket 2.2 19:45:57 10° S 19:50:18 59° W 19:54:41 10° NNW
Spot 1 3.8 19:53:24 26° SSE 19:55:37 88° W 19:59:48 10° NNW
Cosmos 2327 Rocket 4.4 19:49:27 10° S 19:55:39 76° E 20:02:01 10° NNE
Cosmos 614 Rocket 4.0 19:51:14 10° SSW 19:56:18 78° WNW 20:01:25 10° NNE
Cosmos 468 Rocket 4.0 19:52:56 10° NNW 19:58:07 58° ENE 19:59:15 47° ESE
ALOS 3.6 19:54:01 10° SSW 19:58:25 40° W 20:02:50 10° NNW
Spot 2 Rocket 4.3 19:57:47 10° S 20:02:42 52° W 20:07:40 10° NNW
Cosmos 2333 Rocket 2.2 19:57:02 10° NNW 20:02:45 62° ENE 20:04:11 47° ESE
USA 229 DEB 3.8 19:55:42 10° NW 20:02:51 86° SW 20:07:02 28° SE
USA 229 3.8 19:55:48 10° NW 20:02:57 86° SW 20:07:05 28° SE
SJ-11-01 4.4 20:03:21 54° ENE 20:03:22 54° ENE 20:08:01 10° N
Helios 1A 3.1 20:04:16 29° S 20:06:19 72° WSW 20:10:29 10° NNW
Cosmos 1980 3.7 20:05:04 10° NNW 20:10:41 58° ENE 20:11:16 55° E
Cosmos 2074 Rocket 4.1 20:08:53 10° SSW 20:15:08 74° W 20:21:28 10° N
NOSS 3-1 (A) 4.2 20:08:13 10° NW 20:15:24 53° NE 20:17:30 43° E
Cosmos 1850 Rocket 4.4 20:10:22 10° SSW 20:15:37 65° WNW 20:20:59 10° NNE
Cosmos 1814 Rocket 3.9 20:10:30 10° NNW 20:15:32 62° ENE 20:15:32 62° ENE
USA 215 4.3 20:12:28 23° NE 20:15:46 37° N 20:21:37 10° WNW
Helios 1B rocket 3.4 20:12:10 10° NNE 20:18:13 32° SSW 20:20:30 10° SSW
Cosmos 2184 Rocket 4.2 20:11:48 10° SSW 20:18:06 73° W 20:24:23 10° N
Envisat 2.8 20:18:30 71° ESE 20:18:57 77° ENE 20:24:03 10° N
ATLAS 2AS CENTAUR R/B 4.1 20:13:33 10° NW 20:20:35 30° NNE 20:22:52 27° NE
Okean 2 3.9 20:17:04 10° NNW 20:21:11 58° W 20:22:00 48° SW
USA 186 4.2 20:24:36 18° NW 20:24:36 18° NW 20:25:34 10° NNW
ERS-1 Rocket 3.6 20:25:24 43° NNE 20:25:24 43° NNE 20:29:07 10° N
Cosmos 1892 Rocket 3.8 20:25:03 10° NNW 20:29:15 64° W 20:29:15 64° W
Nadezhda 3 Rocket 3.9 20:28:34 10° N 20:34:46 86° W 20:36:37 48° S
NOSS 3-1 (C) 3.9 20:27:44 10° NW 20:35:11 77° NE 20:36:56 58° ESE
Gbstr 26 Del rocket 4.4 20:34:58 10° WSW 20:36:52 28° WSW 20:36:52 28° WSW
H-2A R/B 4.2 20:43:45 16° NNE 20:43:45 16° NNE 20:45:07 10° N
Cosmos 2341 Rocket 4.1 20:42:07 59° NE 20:42:07 59° NE 20:47:24 10° NNE
GEOS 3 Rocket 4.3 20:39:42 32° NNE 20:41:54 53° NW 20:47:00 10° WSW
Cosmos 405 Rocket 4.3 20:41:52 10° NNW 20:45:01 36° WNW 20:45:01 36° WNW
Cosmos 2154 Rocket 4.0 20:40:41 10° S 20:47:02 82° W 20:53:25 10° N
COSMOS 2428 4.5 20:47:02 10° NW 20:51:48 28° WSW 20:55:38 14° SSW
Cosmos 2237 Rocket 2.4 20:50:42 10° NNW 20:55:53 68° WNW 20:55:53 68° WNW
Cosmos 2219 Rocket 3.5 21:07:59 10° NW 21:12:56 33° WSW 21:13:35 32° WSW
SL-16 R/B 3.6 21:24:14 10° NNW 21:27:20 34° NNW 21:27:20 34° NNW
Cosmos 2333 Rocket 4.2 21:42:07 10° NW 21:46:14 23° W 21:46:14 23° W
USA 215 4.4 21:59:49 37° NNW 21:59:49 37° NNW 22:04:06 10° NW
ATLAS 2AS CENTAUR R/B 3.9 22:04:55 10° NW 22:10:18 45° NNW 22:10:18 45° NNW
